Location: ??????????
(48.4699°N, 37.9573°E)
Time: 21:09:21
(UTC+00:00)

USA 267 - Pass Details

Date: 20 January 2021
Orbit: 1099 x 1108 km, 123.0° (Epoch: 02 March)

Event Time Altitude Azimuth Distance (km) Brightness Sun altitude
Exits shadow 16:16:56 30° 113° (ESE) 1,852 4.0 -20.9°
Maximum altitude 16:17:53 31° 129° (SE) 1,810 4.0 -21.1°
Drops below altitude 10° 16:23:34 10° 190° (S) 2,953 5.7 -22.0°
Sets 16:26:21 0° 200° (SSW) 3,908 6.5 -22.5°
